BREEZE-M R/B, 40259

Orbit data source: Space-Track

BREEZE-M R/B, 40259 is space debris in GEO originally from a launch on Sat, 27 Sep 2014 UTC launched from the Tyuratam Missile And Space Complex (TTMTR). Debris objects in space refer to the collection of defunct objects orbiting the Earth. Examples of debris include non-operational satellites, rocket bodies, and fragments generated from explosions, collisions, or faulty payload assembly.

Not visible in the next 10 days
Identifier
40259, 2014-058B
Orbit
GEO
Country
Flag of CISCIS
Related business
Manufacturer
Khrunichev
Mission
Spacecraft
Bus & Motor
BRIZ, Unknown motor
Mass
~1,600 kg wet, 1,600 kg dry
Launch date (UTC)
2014-09-27 (11 years ago)
Launch vehicle
Unknown
Launch site
Tyuratam Missile And Space Complex (TTMTR)
Object type
Payload
Rocket body
Debris
Shape & HBR
Cyl, 2.0 m
Radar Cross Section
15.135 m², Large (>1 m²)

Expand to show TLE details & history
Last TLE update: 23 hours ago

TLE from 23 hours ago
0 BREEZE-M R/B
1 40259U 14058B   25341.81695456 -.00000143  00000-0  00000-0 0  9996
2 40259   9.9928  61.5494 0641242 194.4113 163.5279  0.91686920 37475
Epoch: 2025-12-07T19:36Z
TLE epoch observation values (Epoch: 2025-12-07T19:36:24.873Z)
Latitude
Longitude
50.508°
Altitude
41,158.979 km
Speed
2.804 km/s
True Right ascension
04h 05m 44s
True Declination
0° 00' 00"
Sunlit
Object was in daylight at epoch
Visualization orbit readout
Latitude
Unknown
Longitude
Unknown
Altitude
Unknown
Speed
Unknown
Apparent Right ascension
Unknown
Apparent Declination
Unknown
Sunlit
N/A
Visualization observer readout
Local Sidereal Time
17:15:53
Azimuth
Unknown
Elevation
Unknown
Doppler factor
Unknown
Orbital elements
Apogee altitude
41,250.192 km
Perigee altitude
35,510.019 km
Semi-major axis
44,758.243 km
Eccentricity
0.06412
Inclination
9.9928°
RAAN
61.5494°
Arg. of periapsis
194.4113°
True anomaly
165.46198°
Mean anomaly
163.5279°
Eccentric anomaly
164.50918°
Mean motion
0.22921 °/min
Orbital period
1,570.61 mins
BSTAR
0
Loading maneuver chart data...
Computing Atmospheric mass density...
Loading historical data...
Loading historical data...
Loading historical data...
Loading historical data...
Loading historical data...
Loading historical data...
Loading historical data...
Other satellites on launch #58 in the year 2014 (2014-09-27 UTC)

Documentation

Showing up to 5 results
|